Other Public Products
Issued by NWS Grand Forks, ND

Home | Current Version | Previous Version | Graphics & Text | Print | Product List | Glossary On
Versions: 1 2 3 4 5 6 7 8 9 10 11 12 13 14 15 16 17 18 19 20 21 22 23 24 25 26 27 28 29 30 31 32 33 34 35 36 37 38 39 40 41 42 43 44 45 46 47 48 49 50
000
FPUS83 KFGF 272231
OPUFGF
PRAIRIE TO PINES WEATHER ROUNDUP
NATIONAL WEATHER SERVICE EASTERN NORTH DAKOTA/GRAND FORKS ND
400 PM CST SAT DEC 27 2014

 **SATELLITE DATA USED TO AUGMENT SKY COVER AT AUTOMATED STATIONS**
 *****  WEATHER ACROSS EASTERN NORTH DAKOTA  *****

CITY           SKY/WX    TMP DP  RH WIND       PRES   REMARKS
GRAND FORKS    CLOUDY    20  15  81 SW6       30.02S WCI  12
GRAND FORKS AF FLURRIES  21  18  86 SW5       30.01S WCI  15
GRAND CITY NWS   N/A     19 N/A N/A MISG        N/A
BUXTON           N/A     21  17  84 NE2         N/A
DEVILS LAKE    CLOUDY    21  16  79 SW5       29.96S WCI  15
FARGO          CLOUDY    26  19  74 SW7       30.03F WCI  18
WAHPETON ARPT  PTCLDY    23  18  80 W10       30.06S WCI  12
$$

 *****  WEATHER ACROSS CENTRAL AND WESTERN NORTH DAKOTA  *****

CITY           SKY/WX    TMP DP  RH WIND       PRES   REMARKS
JAMESTOWN      CLOUDY    24  18  77 SW7       29.97F WCI  16
BISMARCK       PTCLDY    28  18  66 W13       29.99R WCI  17
MINOT          MOCLDY    22  14  71 NW9       29.96R WCI  12
MINOT AFB      CLOUDY    21  18  86 N8        29.97R WCI  12
GARRISON         N/A     25  17  72 NW14      29.95R WCI  13
WILLISTON      CLOUDY    25  16  68 W8        29.98R WCI  16
DICKINSON      PTCLDY    26  16  65 W13       29.95R WCI  15
HETTINGER      CLOUDY    27  16  63 W16       29.99R WCI  15
$$

 *****  OTHER OBSERVATIONS NORTHEAST NORTH DAKOTA  *****

CITY           SKY/WX    TMP DP  RH WIND       PRES   REMARKS
WALHALLA       LGT SNOW  14  14 100 NE9       30.03R WCI   2
LANGDON        LGT SNOW  18  14  86 NW5       29.96R WCI  11
CAVALIER       LGT SNOW  16  14  93 N9        30.03R WCI   4
GRAFTON        NOT AVBL
CANDO          MOCLDY    21  16  79 W8        29.97R WCI  12
FORT TOTTEN    NOT AVBL
ROLLA          FLURRIES  18  16  93 N9        29.96R WCI   6
RUGBY          CLOUDY    21  18  86 NW12      29.96R WCI   9
 ***** THE ABOVE OBSERVATIONS ARE NON NWS ARE NOT QUALITY
        CONTROLLED AND MAY MIS-REPORT RAIN FOR SNOW...
$$

 *****  OTHER OBSERVATIONS SOUTHEAST NORTH DAKOTA *****

CITY           SKY/WX    TMP DP  RH WIND       PRES   REMARKS
COOPERSTOWN    NOT AVBL
VALLEY CITY    CLOUDY    23  23 100 W5        30.00R WCI  17
OAKES            N/A     23  19  86 SW9       30.03F WCI  13
GWINNER        MOCLDY    27  21  80 SW13      30.04S WCI  16
BUFFALO        NOT AVBL
WYNDMERE         N/A     23  18  80 W8          N/A  WCI  14
 ***** THE ABOVE OBSERVATIONS ARE NON NWS ARE NOT QUALITY
       CONTROLLED AND MAY MIS-REPORT RAIN FOR SNOW...
$$

  *****  WEATHER ACROSS NORTHERN MINNESOTA  *****

CITY           SKY/WX    TMP DP  RH WIND       PRES   REMARKS
FLAG ISLAND    CLOUDY    12   7  79 W5        29.96R WCI   4
WARROAD        FLURRIES  14   9  79 SW8       29.98S WCI   3
ROSEAU         FLURRIES  16  10  79 W8        29.99R WCI   5
HALLOCK        LGT SNOW  18  14  86 NW3       30.02R
THF RVR FALLS  CLOUDY    14  10  85 SW5       30.01S WCI   6
HALSTAD          N/A     22  16  76 CALM        N/A
FOSSTON        FLURRIES  14  10  85 SW8       30.01S WCI   3
BAUDETTE       PTCLDY    14   6  70 SW5       29.96R WCI   6
WASKISH        CLOUDY    14   9  79 SW9       29.99S WCI   2
CROOKSTON      MOCLDY    16  12  86 S5        30.03F WCI   9
$$
  *****  WEATHER ACROSS CENTRAL AND WEST MINNESOTA  *****

CITY           SKY/WX    TMP DP  RH WIND       PRES   REMARKS
BEMIDJI        CLOUDY    16  10  78 W13G18    29.99S WCI   2
PARK RAPIDS    CLOUDY    19  11  70 W10       30.00R WCI   7
WADENA         MOCLDY    18  12  79 W10       30.00F WCI   6
DETROIT LAKES  CLOUDY    19  18  93 W7        30.03R WCI  10
MOORHEAD       CLOUDY    25  21  86 S3        30.04F
FERGUS FALLS   CLEAR     21  16  79 W8        30.07F WCI  12
ELBOW LAKE     FAIR      23  18  83 W10       30.04S WCI  12
MORRIS MN      CLEAR     21  16  79 S7        30.06S WCI  13
STAPLES        CLOUDY    19  10  68 W13       30.01S WCI   7
WHEATON        CLEAR     23  16  74 W7        30.08S WCI  15
$$
  *****  WEATHER ELSEWHERE ACROSS MINNESOTA  *****

CITY           SKY/WX    TMP DP  RH WIND       PRES   REMARKS
DULUTH         PTCLDY    22   5  48 W7        29.94F WCI  13
INTRNTL FALLS  CLOUDY    15   6  67 W10       29.96R WCI   2
ELY            CLOUDY    16   7  67 W3        29.94R
CLOQUET        PTCLDY    23   3  42 W9        29.98R WCI  13
BRAINERD       PTCLDY    22   1  40 W9        30.01S WCI  12
HIBBING        CLOUDY    21   4  47 W6        29.96R WCI  13
ALEXANDRIA     CLOUDY    20  13  74 SW10      30.04R WCI   9
SAINT CLOUD    CLEAR     23   6  48 SW9       30.06S WCI  13
MINNEAPOLIS    CLEAR     23  11  60 W10       30.09R WCI  12
$$

  *****  WEATHER ACROSS SOUTH DAKOTA  *****

CITY           SKY/WX    TMP DP  RH WIND       PRES   REMARKS
SIOUX FALLS    CLEAR     16   9  74 W5        30.14S WCI   9
BROOKINGS      NOT AVBL
WATERTOWN      CLEAR     16  11  80 SW10      30.05F WCI   4
HURON          MOCLDY    20  13  74 SW6       30.11F WCI  12
SISSETON         N/A     23  16  74 W8        30.05S WCI  14
ABERDEEN       CLEAR     27  19  72 SW12      30.07S WCI  17
MITCHELL       CLEAR     20  13  74 SW10      30.15S WCI   9
PIERRE         CLEAR     24  18  77 SW9       30.07F WCI  14
MOBRIDGE       CLEAR     27  20  75 SW5       30.00S WCI  22
RAPID CITY     MOSUNNY   21  14  74 CALM      30.02F
$$

  *****  SOME WEATHER IN NEARBY STATES *****

CITY           SKY/WX    TMP DP  RH WIND       PRES   REMARKS
GLASGOW MT     CLOUDY    31  17  56 SW5       29.95F
GREAT FALLS MT MOSUNNY   28  18  66 SW17      29.91F WCI  16
CHEYENNE WY    SUNNY     20   5  52 SW10      30.00F WCI   9
SCOTTSBLUFF NE SUNNY     21  10  62 CALM      30.08S
OMAHA NE       PTCLDY    26  17  68 W9        30.25R WCI  17
DES MOINES IA  MOCLDY    28  19  69 NW13      30.20R WCI  17
DAVENPORT IA   CLOUDY    32  25  75 W15       30.12S WCI  22
CHICAGO IL     CLOUDY    35  28  75 W17G26    30.02R WCI  25
EAU CLAIRE WI  PTCLDY    22  15  75 W7        30.05R WCI  13
LA CROSSE WI   CLOUDY    28  22  78 W10       30.08R WCI  19
$$

  *****  SOME NATIONAL WEATHER *****

CITY           SKY/WX    TMP DP  RH WIND       PRES   REMARKS
LA GUARDIA NY  MOCLDY    50  34  54 S9        30.16F
RALEIGH NC     PTCLDY    55  37  50 SW5       30.23S
ATLANTA GA     CLOUDY    59  42  53 CALM      30.23R
NEW ORLEANS LA CLOUDY    70  67  90 S12       30.05S FOG
OKLAHOMA CITY  PTSUNNY   36  21  54 N13       30.26R
ALBUQUERQUE NM MOSUNNY   36  11  35 VRB3      30.20S
SALT LAKE CITY CLOUDY    27  15  61 S9        30.31S WCI  18
LOS ANGELES CA MOSUNNY   59  22  24 SW10      30.28S
BOISE ID       CLOUDY    32  20  61 SE10      30.25F WCI  24
SEATTLE WA     PTSUNNY   48  43  81 SW18G24   30.03S
$$

*** WEATHER ACROSS MANITOBA...SASKATCHEWAN AND ONTARIO ***
                ***ONTARIO***

CITY           SKY/WX    TMP DP  RH WIND       PRES   REMARKS
GERALDTON      LGT SNOW  18  14  86 N3        29.85R VSB 1
THUNDER BAY    PTCLDY    14   9  79 NW8       29.95R WCI   3
SIOUX LOOKOUT  LGT SNOW   5   1  85 SW3       29.90S
TORONTO        CLOUDY    50  39  66 SW25G36   29.91S
BIG TROUT LK   FLURRIES  -4  -8  84 W2        29.92F
PICKLE LAKE    CLOUDY     0  -4  85 W5        29.86S WCI -10
DRYDEN         FLURRIES   9   7  92 SW6       29.90R WCI  -1
KENORA         FLURRIES   7   3  85 W8        29.93R WCI  -6
$$
                *** MANITOBA***

CITY           SKY/WX    TMP DP  RH WIND       PRES   REMARKS
BRANDON        CLOUDY    10   3  72 N12       30.03R WCI  -4
DAUPHIN        FLURRIES  -2  -8  78 NE9       30.11R WCI -18
ISLAND LAKE    PTCLDY   -11 -17  77 NW8       29.97R WCI -28
PILOT MOUND      N/A     14  10  85 N7          N/A  WCI   4
THE PAS        PTCLDY   -15 -20  76 W9        30.13  WCI -33
THOMPSON       PTCLDY   -15 -22  70 NW5       30.04R WCI -27
WINNIPEG       MOCLDY     5  -2  72 NW10      30.05  WCI -10
CHURCHILL      CRYSTALS  -9 -13  84 N22G29    30.04  BLWGSNOWWCI -35
GILLAM         PTCLDY   -18 -24  76 W8        29.99  WCI -37
$$
                ***SASKATCHEWAN***

CITY           SKY/WX    TMP DP  RH WIND       PRES   REMARKS
ESTEVAN        FLURRIES  18  12  79 NW10      29.98R WCI   6
KINDERSLEY     CLOUDY    12   9  85 E14       29.93  WCI  -3
LLOYDMINSTER   LGT SNOW   7   3  85 E15       29.97R DRFTSNOWWCI -11
PRINCE ALBERT  PTCLDY   -11 -17  77 N6        30.14  WCI -25
REGINA         LGT SNOW  12   7  79 NE7       30.01  WCI   2
YORKTON        CLEAR     -8 -13  77 NW7       30.06R WCI -22
N. BATTLEFORD  CLOUDY     1  -2  85 E13       30.06R WCI -16



USA.gov is the U.S. government's official web portal to all federal, state and local government web resources and services.